Wind_Speed
9 11 11 11 11 10 10 9 10 10 11 11 11 11 11 10 10 10 9 9 8 8 7 6 5 5 4 5 5 5 4 5 5 5 6 7 7 8 8 8 9 9 10
8 9 10 10 10 10 10 9 9 9 10 10 10 10 10 9 9 8 8 8 7 7 6 6 5 5 4 4 4 4 4 5 6 5 6 6 7 8 8 8 9 9 10
7 8 9 10 10 10 10 10 10 9 9 10 10 10 9 8 8 7 7 7 6 6 5 5 5 4 4 4 4 4 4 5 6 6 6 6 7 8 8 8 8 8 9
6 8 9 10 10 10 10 10 10 9 9 9 9 9 8 8 7 6 6 6 5 5 5 4 4 4 4 4 4 4 4 4 6 6 6 6 6 7 8 8 8 8 8
6 7 9 10 11 11 10 10 10 10 9 9 9 8 8 7 6 6 5 5 5 4 4 4 4 4 4 4 4 4 4 4 5 6 6 6 6 6 8 8 8 8 7
5 7 8 10 11 11 11 11 11 10 9 9 8 8 7 6 6 5 5 4 4 4 3 3 3 3 3 4 4 4 4 4 5 5 6 6 6 6 7 8 8 7 7
5 6 8 10 11 12 13 12 12 10 9 9 8 7 7 6 5 5 4 4 3 3 3 3 3 3 3 4 4 4 4 4 4 5 6 6 6 6 7 7 7 7 6
5 6 9 11 12 13 13 13 12 11 10 9 8 8 7 6 5 4 3 3 3 3 3 2 2 2 2 3 3 4 4 4 4 5 6 6 6 6 7 7 7 6 6
5 7 8 11 13 13 14 14 13 12 11 10 9 8 7 6 5 4 3 2 3 3 2 2 2 2 2 3 3 3 3 4 4 5 6 6 6 6 6 6 7 6 6
6 7 9 11 13 14 14 14 14 13 12 10 10 9 8 6 5 4 3 2 2 2 2 2 2 2 2 3 3 3 3 4 4 5 6 6 6 6 6 6 7 6 6
5 7 9 11 12 13 14 15 15 14 13 11 10 9 8 7 5 4 3 3 2 2 2 1 2 2 2 2 2 2 2 3 4 5 6 6 7 7 7 7 7 7 6
5 6 8 10 13 14 15 15 15 15 14 12 11 10 8 7 5 4 4 3 2 2 1 1 1 1 2 2 3 2 2 3 3 4 5 6 7 7 7 7 7 7 6
6 8 9 10 13 14 15 16 15 15 14 13 12 11 9 7 6 5 4 3 3 2 2 1 1 2 2 3 3 3 2 3 3 3 4 5 6 7 7 7 7 7 6
7 7 9 11 13 14 15 16 16 16 15 15 14 12 10 8 7 5 4 4 3 2 2 2 1 2 3 3 3 3 3 3 3 3 3 4 6 7 6 6 6 7 7
7 7 8 11 14 15 16 17 18 17 17 16 14 13 11 9 8 6 5 5 4 3 2 2 2 2 3 3 4 3 3 3 3 3 3 4 5 6 6 5 5 6 7
8 7 8 10 13 15 16 18 17 17 17 16 15 13 12 10 9 8 7 6 5 4 3 2 2 3 3 4 4 4 3 4 3 3 3 3 4 5 5 5 5 6 6
9 8 7 9 12 15 16 18 18 17 17 17 16 15 13 11 9 9 8 7 6 5 4 3 2 3 3 3 4 4 4 4 4 3 3 3 3 4 4 5 5 6 6
10 9 8 8 11 14 16 17 18 19 19 18 18 16 14 12 10 10 9 8 7 6 5 3 3 3 3 3 3 4 4 4 4 4 4 4 4 4 4 4 5 6 6
10 9 7 7 9 13 16 17 18 19 19 19 18 17 15 13 12 11 10 8 7 7 6 5 4 4 3 3 4 4 4 4 4 4 4 4 4 4 4 5 5 6 6
10 8 6 6 8 11 14 16 17 18 18 18 18 18 16 15 13 12 10 9 8 7 7 6 5 5 4 4 4 4 4 3 3 4 3 3 3 4 4 5 5 5 6
10 9 7 7 8 10 13 15 16 18 18 18 18 18 17 16 14 13 12 10 9 9 8 7 6 6 5 5 4 4 3 3 3 4 4 3 3 3 4 4 4 4 5
10 9 8 7 7 9 12 14 16 18 17 17 18 18 17 16 15 14 13 12 11 10 9 8 7 7 6 6 5 5 4 4 4 4 4 3 3 3 3 3 4 4 5
10 9 8 7 7 8 11 13 16 18 17 16 17 18 17 17 16 15 14 13 12 11 10 9 9 8 8 7 7 6 6 5 4 4 4 4 3 4 4 4 5 6 6
10 9 8 7 6 8 11 12 13 15 17 17 17 17 17 17 17 16 15 14 13 12 12 11 10 10 9 9 9 8 7 6 6 5 5 5 5 5 6 6 7 7 8
10 9 7 6 6 7 9 12 13 14 16 16 17 18 17 17 17 17 16 16 15 14 13 12 12 11 11 11 10 9 9 8 8 7 7 7 8 8 8 9 10 10 11
9 8 6 5 5 6 7 10 11 13 15 15 15 17 17 17 17 18 17 17 16 16 15 14 14 13 13 13 12 12 11 10 10 10 11 11 11 12 12 13 13 14 14
Wind_Direction
154 155 156 154 154 154 155 157 153 145 138 131 125 120 116 112 108 103 97 93 92 92 93 96 101 105 107 110 109 108 113 116 122 128 129 131 133 132 130 123 123 121 121
156 162 162 161 162 163 165 166 161 152 142 134 129 123 117 113 108 102 98 95 93 93 93 95 102 106 111 116 120 120 121 127 130 133 138 144 141 139 135 129 127 125 125
172 174 174 171 171 171 172 173 169 159 149 140 133 127 122 117 111 105 102 98 96 95 95 99 104 109 114 120 125 131 134 135 135 137 142 146 142 141 138 135 133 131 132
188 184 183 181 179 177 176 175 172 165 157 150 141 134 129 123 117 111 107 102 100 100 99 102 108 115 117 118 127 137 143 147 145 145 143 147 147 146 144 142 140 137 138
196 189 187 185 185 185 183 182 178 173 168 159 150 142 136 128 123 118 112 107 104 105 103 105 111 118 121 122 127 138 145 142 145 147 149 151 153 150 149 148 148 144 146
205 199 195 192 189 189 189 188 184 179 176 168 159 151 144 137 132 125 118 110 108 112 111 110 114 120 126 127 132 140 144 144 152 157 156 156 157 155 156 156 155 151 151
213 209 203 199 194 193 193 191 189 185 182 177 169 161 153 145 138 131 124 118 117 119 117 116 119 130 135 134 141 148 152 156 158 162 161 158 164 164 162 160 159 160 162
231 220 211 207 201 199 197 195 194 193 189 186 180 172 162 151 143 136 133 131 126 123 120 121 125 132 143 146 147 153 160 166 162 165 165 166 172 177 172 170 171 169 167
245 234 221 214 208 204 201 200 198 197 195 193 188 182 174 162 153 148 144 143 134 130 130 129 130 131 145 155 159 155 166 176 178 178 179 178 180 182 185 185 183 180 177
249 236 228 216 209 206 205 203 202 202 201 199 194 189 182 171 164 161 159 158 149 145 147 140 145 147 157 167 167 164 179 187 194 195 193 190 188 189 191 188 189 193 191
263 245 232 221 214 210 208 206 205 205 204 202 199 195 187 179 173 169 166 165 158 158 164 157 160 164 170 178 179 186 198 207 199 200 199 199 198 197 196 196 196 197 199
283 252 238 224 216 213 210 208 207 208 206 203 201 200 195 188 183 177 173 176 176 174 182 182 187 191 188 184 182 189 193 197 199 198 201 207 207 205 201 204 204 205 206
291 258 247 229 219 215 212 209 209 209 207 204 203 202 199 196 193 188 190 195 192 192 195 197 201 190 185 183 185 186 189 187 191 196 207 214 209 201 204 211 212 214 220
310 264 250 232 220 216 214 210 210 210 209 207 205 205 205 203 201 202 203 204 199 191 191 190 188 192 190 191 192 197 204 191 194 204 208 211 205 201 210 219 222 225 228
316 289 252 228 221 219 217 214 213 212 212 210 210 208 208 208 209 209 207 206 202 192 185 187 193 201 199 190 193 200 201 201 201 203 202 203 211 215 216 224 232 237 239
324 302 270 237 227 224 220 216 214 215 214 213 212 212 212 212 211 210 207 205 201 194 190 186 192 201 207 205 199 200 211 216 210 210 208 206 213 216 222 229 235 239 243
325 309 280 248 230 225 221 215 214 216 216 215 216 216 215 214 211 209 205 205 202 197 194 189 182 190 191 192 195 200 206 208 206 209 210 213 218 224 231 242 250 250 249
328 316 291 250 229 227 224 218 216 215 216 215 216 216 218 217 212 208 207 206 204 200 198 191 180 184 187 186 185 186 191 198 210 208 209 216 224 232 242 250 250 250 252
331 322 301 256 238 231 224 222 219 216 217 215 214 215 217 217 213 209 207 205 206 204 200 194 187 189 190 184 180 179 186 194 197 206 219 222 227 236 248 258 260 256 254
331 323 305 276 250 231 225 222 219 217 215 216 217 217 217 216 214 210 209 208 209 206 203 200 198 201 201 196 190 187 191 195 196 206 219 223 235 243 247 256 260 259 258
327 322 306 283 259 235 224 220 216 214 213 216 217 218 218 217 216 214 214 215 214 211 209 207 206 208 208 207 204 200 200 203 212 221 229 236 241 246 251 255 255 258 261
323 321 314 292 262 234 221 218 214 213 215 217 216 216 217 217 218 216 216 217 214 213 213 212 210 210 212 212 211 210 210 215 221 226 232 240 244 251 256 256 258 263 265
318 312 308 299 268 240 222 217 215 216 217 219 216 216 218 221 219 219 219 220 217 217 216 215 216 215 215 214 214 215 217 222 223 226 232 237 247 258 264 267 267 268 269
318 310 296 282 262 241 225 216 214 216 216 217 217 217 220 220 220 220 221 220 218 217 218 220 220 219 218 218 219 219 221 225 225 231 240 247 258 267 271 273 274 274 274
317 315 302 279 257 236 222 218 219 216 214 215 217 217 217 219 221 223 222 223 221 220 221 223 224 223 223 222 223 224 228 233 237 243 250 256 262 267 270 273 273 273 274
320 317 309 292 260 234 221 217 216 216 217 218 218 217 218 220 223 225 225 225 223 223 224 226 227 227 228 230 232 234 236 241 246 251 256 261 264 267 269 272 273 274 274
Height
5888 5889 5890 5891 5892 5894 5895 5897 5898 5898 5899 5899 5899 5899 5900 5900 5900 5901 5901 5901 5901 5901 5901 5901 5901 5901 5901 5901 5901 5901 5901 5901 5901 5901 5901 5901 5902 5902 5903 5903 5903 5904 5904
5889 5890 5891 5892 5893 5894 5896 5897 5898 5899 5899 5899 5899 5900 5900 5900 5901 5901 5901 5901 5901 5901 5901 5901 5901 5901 5902 5901 5901 5901 5901 5901 5901 5902 5902 5902 5902 5903 5904 5904 5905 5905 5906
5889 5889 5891 5892 5893 5895 5896 5897 5898 5899 5899 5899 5900 5900 5900 5900 5901 5901 5901 5901 5901 5901 5902 5902 5902 5902 5902 5902 5902 5902 5902 5902 5902 5902 5902 5903 5903 5904 5904 5905 5905 5906 5907
5888 5889 5890 5891 5893 5894 5896 5897 5898 5899 5899 5900 5900 5900 5901 5901 5901 5901 5901 5901 5901 5902 5902 5902 5902 5902 5902 5902 5902 5902 5902 5902 5902 5903 5903 5903 5904 5904 5905 5906 5906 5907 5908
5887 5888 5889 5891 5892 5894 5895 5897 5898 5899 5899 5900 5900 5900 5901 5901 5901 5901 5901 5902 5902 5902 5902 5902 5902 5902 5902 5902 5902 5902 5902 5902 5903 5903 5903 5904 5904 5905 5905 5906 5907 5908 5909
5886 5887 5888 5889 5891 5892 5894 5896 5897 5898 5899 5899 5900 5900 5900 5901 5901 5901 5901 5901 5902 5902 5902 5902 5902 5902 5902 5902 5902 5902 5902 5903 5903 5903 5903 5904 5905 5905 5906 5907 5908 5909 5910
5885 5886 5887 5888 5890 5891 5893 5895 5896 5897 5898 5899 5900 5900 5900 5901 5901 5901 5901 5901 5901 5902 5902 5902 5902 5902 5902 5902 5902 5902 5903 5903 5903 5903 5904 5904 5905 5906 5907 5907 5908 5909 5910
5884 5884 5885 5886 5888 5890 5892 5893 5895 5896 5897 5898 5899 5900 5900 5901 5901 5901 5901 5901 5901 5901 5902 5902 5902 5902 5902 5902 5902 5902 5903 5903 5903 5904 5904 5905 5905 5906 5907 5908 5909 5910 5910
5882 5883 5883 5885 5886 5888 5890 5892 5894 5895 5896 5897 5898 5899 5900 5900 5901 5901 5901 5901 5901 5901 5901 5902 5902 5901 5901 5902 5902 5902 5903 5903 5904 5904 5904 5905 5906 5906 5907 5908 5909 5910 5910
5881 5881 5882 5883 5884 5886 5888 5890 5892 5894 5895 5897 5898 5898 5899 5900 5900 5900 5900 5901 5901 5901 5901 5901 5901 5901 5901 5902 5902 5902 5903 5903 5903 5904 5904 5905 5905 5906 5907 5908 5909 5909 5910
5879 5879 5880 5881 5882 5884 5886 5888 5890 5892 5894 5895 5897 5898 5898 5899 5899 5900 5900 5900 5900 5901 5901 5901 5901 5901 5901 5901 5902 5902 5903 5903 5903 5904 5904 5905 5906 5906 5907 5908 5908 5909 5910
5878 5877 5878 5879 5880 5882 5884 5886 5888 5890 5892 5894 5896 5897 5898 5899 5899 5899 5899 5900 5900 5900 5900 5900 5901 5901 5901 5901 5901 5902 5902 5903 5903 5903 5904 5905 5905 5906 5906 5907 5908 5909 5909
5876 5875 5876 5877 5878 5880 5882 5884 5886 5889 5891 5892 5894 5896 5897 5898 5898 5899 5899 5899 5899 5899 5900 5900 5900 5900 5901 5901 5901 5902 5902 5902 5903 5903 5903 5904 5905 5905 5906 5907 5907 5908 5909
5874 5873 5874 5875 5876 5878 5880 5882 5884 5887 5889 5891 5893 5894 5896 5897 5898 5898 5898 5899 5899 5899 5899 5899 5900 5900 5900 5901 5901 5902 5902 5902 5903 5903 5903 5903 5904 5905 5905 5906 5907 5907 5908
5873 5872 5872 5873 5874 5876 5878 5880 5883 5885 5887 5889 5891 5893 5895 5896 5897 5897 5898 5898 5898 5898 5899 5899 5899 5899 5900 5900 5901 5901 5902 5902 5902 5902 5903 5903 5904 5904 5905 5905 5906 5906 5907
5872 5871 5870 5871 5872 5874 5876 5878 5881 5883 5885 5888 5890 5892 5893 5895 5895 5896 5897 5897 5898 5898 5898 5898 5899 5899 5899 5900 5900 5901 5901 5901 5902 5902 5903 5903 5903 5904 5904 5905 5905 5905 5906
5871 5869 5868 5869 5870 5872 5874 5876 5878 5881 5883 5886 5888 5890 5892 5893 5894 5895 5896 5896 5897 5897 5898 5898 5898 5899 5899 5899 5900 5900 5901 5901 5902 5902 5902 5903 5903 5903 5904 5904 5904 5905 5905
5869 5867 5866 5867 5868 5869 5871 5874 5876 5878 5881 5884 5886 5888 5890 5891 5893 5894 5895 5896 5896 5897 5897 5897 5898 5899 5899 5899 5900 5900 5900 5901 5901 5902 5902 5902 5902 5903 5903 5903 5904 5904 5904
5867 5866 5865 5865 5866 5867 5869 5871 5874 5876 5879 5881 5883 5886 5888 5890 5891 5893 5894 5895 5895 5896 5896 5897 5898 5898 5899 5899 5899 5900 5900 5900 5901 5901 5901 5902 5902 5902 5902 5903 5903 5903 5903
5866 5865 5863 5863 5864 5865 5866 5869 5871 5874 5876 5879 5881 5883 5886 5887 5889 5891 5892 5893 5894 5895 5896 5897 5897 5898 5898 5899 5899 5900 5900 5900 5901 5901 5901 5901 5901 5901 5902 5902 5902 5902 5902
5865 5864 5862 5861 5861 5862 5864 5866 5869 5871 5874 5877 5879 5881 5883 5885 5887 5889 5891 5892 5893 5894 5895 5896 5897 5897 5898 5898 5899 5900 5900 5900 5900 5901 5901 5901 5901 5901 5901 5901 5901 5901 5901
5864 5862 5860 5860 5859 5860 5862 5864 5866 5869 5871 5874 5876 5879 5881 5883 5885 5887 5889 5890 5892 5893 5894 5895 5896 5896 5897 5898 5899 5899 5900 5900 5900 5900 5900 5901 5901 5900 5900 5901 5900 5900 5900
5862 5860 5859 5858 5857 5857 5859 5861 5864 5866 5869 5872 5874 5876 5879 5881 5883 5885 5887 5888 5890 5891 5892 5893 5894 5895 5896 5897 5898 5899 5899 5900 5900 5900 5900 5900 5900 5900 5900 5900 5900 5899 5899
5860 5858 5857 5856 5855 5856 5858 5860 5862 5864 5867 5869 5871 5874 5876 5878 5880 5883 5884 5886 5888 5889 5890 5892 5893 5894 5895 5896 5896 5897 5898 5899 5899 5899 5900 5899 5899 5899 5899 5899 5899 5898 5898
5858 5856 5854 5854 5854 5855 5856 5858 5860 5862 5864 5867 5869 5871 5873 5875 5878 5880 5882 5884 5885 5887 5888 5890 5891 5892 5893 5894 5895 5896 5897 5897 5898 5898 5898 5898 5898 5898 5898 5897 5897 5897 5896
5856 5855 5853 5852 5852 5853 5854 5856 5858 5860 5862 5864 5867 5869 5871 5873 5875 5877 5879 5881 5883 5884 5886 5887 5889 5890 5891 5892 5893 5894 5894 5895 5896 5896 5896 5896 5896 5896 5895 5895 5894 5894 5893